Location: Newark
(55.1374°N, 21.8242°E)
Time: 12:56:23
(UTC+00:00)

Envisat - Pass Details

Date: 06 April 2020
Orbit: 764 x 766 km, 98.1° (Epoch: 02 June)

Event Time Altitude Azimuth Distance (km) Brightness Sun altitude
Rises 17:57:55 0° 228° (SW) 3,228 6.6 -5.9°
Reaches altitude 10° 18:02:11 10° 263° (W) 2,310 6.6 -6.5°
Maximum altitude 18:03:39 11° 279° (W) 2,234 7.0 -6.7°
Drops below altitude 10° 18:05:06 10° 296° (WNW) 2,315 7.3 -6.9°
Sets 18:09:25 0° 331° (NNW) 3,249 7.2 -7.5°
